Regional Weather Roundup
Issued by NWS Charleston, SC

Current Version | Previous Version | Graphics & Text | Print | Product List | Glossary On
Versions: 1 2 3 4 5 6 7 8 9 10 11 12 13 14 15 16 17 18 19 20 21 22 23 24 25 26 27 28 29 30 31 32 33 34 35 36 37 38 39 40 41 42 43 44 45 46 47 48 49 50
000 ASUS42 KCHS 191224 RWRCHS REGIONAL WEATHER ROUNDUP NATIONAL WEATHER SERVICE CHARLESTON SC 800 AM EDT TUE SEP 19 2017 NOTE: "FAIR" INDICATES FEW OR NO CLOUDS BELOW 12,000 FEET WITH NO SIGNIFICANT WEATHER AND/OR OBSTRUCTIONS TO VISIBILITY. NOT ALL STATIONS ARE QUALITY CONTROLLED. USE DATA WITH CAUTION... ESPECIALLY DEWPOINT OBSERVATIONS. SCZ027-030-031-034>040-042>050-191300- ...SOUTHEAST SOUTH CAROLINA... CITY SKY/WX TMP DP RH WIND PRES REMARKS N CHARLESTON SUNNY 70 69 97 CALM 29.98R 6HR MIN TEMP: 68; 6HR MAX TEMP: 71; WATERFRONT PRK N/A 74 71 90 VRB3 29.82R JOHNS ISLAND FAIR 72 70 94 CALM 29.99R FOG PINOPOLIS N/A 72 70 94 NE6 29.90R MONCKS CORNER FAIR 64 64 100 CALM 29.99R FOG SUMMERVILLE FAIR 64 64 100 CALM 30.00R BEAUFORT MCAS CLEAR 71 70 96 CALM 29.99R 6HR MIN TEMP: 69; 6HR MAX TEMP: 73; BEAUFORT ARPT FAIR 72 70 94 CALM 29.99R HILTON HEAD IS CLEAR 72 70 94 CALM 30.00R WALTERBORO MOSUNNY 64 64 100 CALM 30.00R ALLENDALE NOT AVBL ...SOUTHERN MIDLANDS AND PEE DEE... CITY SKY/WX TMP DP RH WIND PRES REMARKS GEORGETOWN FAIR 64 64 100 CALM 29.99R KINGSTREE FAIR 63 61 94 CALM 29.99S ORANGEBURG CLEAR 67 65 93 CALM 30.01R 6HR MIN TEMP: 65; 6HR MAX TEMP: 70; BARNWELL FAIR 68 68 100 CALM 30.01R AIKEN CLOUDY 66 64 94 CALM 30.05R MANNING FAIR 64 57 77 CALM 30.00R COLUMBIA MOCLDY 68 64 87 CALM 30.01R 6HR MIN TEMP: 66; 6HR MAX TEMP: 71; SUMTER CLEAR 68 64 85 CALM 29.99R 6HR MIN TEMP: 65; 6HR MAX TEMP: 70; FLORENCE SUNNY 67 66 97 N7 30.00R 6HR MIN TEMP: 65; 6HR MAX TEMP: 68; MYRTLE BEACH SUNNY 70 67 90 N7 29.99R N MYRTLE BEACH SUNNY 69 67 93 N5 29.96R 6HR MIN TEMP: 68; 6HR MAX TEMP: 70; $$ GAZ063-065-086>088-099>101-113>116-118-119-134>141-150-191300- ...SOUTHEAST GEORGIA... CITY SKY/WX TMP DP RH WIND PRES REMARKS SAVANNAH ARPT PTCLDY 71 69 93 W5 30.00R 6HR MIN TEMP: 69; 6HR MAX TEMP: 73; HUNTER AAF PTCLDY 70 69 95 CALM 29.97R 6HR MIN TEMP: 68; 6HR MAX TEMP: 71; FORT STEWART CLOUDY 69 68 94 CALM 29.98R 6HR MIN TEMP: 68; 6HR MAX TEMP: 72; STATESBORO PTCLDY 70 70 100 CALM 30.00R SYLVANIA MOSUNNY 67 67 100 CALM 30.01R FOG CLAXTON FAIR 68 68 99 CALM 30.00R FOG ...CSRA...CENTRAL AND FAR SOUTHEAST GEORGIA... CITY SKY/WX TMP DP RH WIND PRES REMARKS THOMSON MOCLDY 67 65 95 CALM 30.07R AUGUSTA-BUSH CLOUDY 68 66 93 W3 30.00R FOG 6HR MIN TEMP: 65; 6HR MAX TEMP: 69; AUGUSTA-DANIEL CLOUDY 73 67 81 CALM 30.02R SWAINSBORO FAIR 66 66 100 CALM 30.01R VIDALIA CLEAR 70 68 94 SW3 30.00R EASTMAN FAIR 66 65 97 CALM 30.02R FOG HAZLEHURST FAIR 73 62 66 SW3 29.99R ALMA CLEAR 71 67 87 CALM 29.99R 6HR MIN TEMP: 67; 6HR MAX TEMP: 71; WAYCROSS CLEAR 69 67 90 CALM 30.00R JESUP NOT AVBL BAXLEY FAIR 68 68 100 CALM 29.99S BRUNSWICK CLOUDY 72 68 88 CALM 30.00R SAINT SIMONS PTCLDY 74 71 91 W3 29.99R 6HR MIN TEMP: 72; 6HR MAX TEMP: 74; $$ SCZ027-028-034-036>038-045-046-048>050-GAZ119-141-191300- ...LAKE AND SUPPLEMENTAL COASTAL OBSERVATIONS... STATION/POSITION TIME TEMP WIND PRES WAVE SWELL AIR SEA DIR/SP/G HT/PER HT/PER/DIR (UTC) (F) (DEG/KT/KT) (MB) (FT/S) (FT/S/D) WINYAH BAY 1045 68 330/ 5 1014.0 LAKE MURRAY 1120 70 CALM / 2 1015.2 ACE BASIN NERRS 1045 70 CALM 1015.0 FORT PULASKI 1142 75 79 310/ 6/ 8 1015.8R SAPELO ISLAND 1100 74 CALM 1015.0 $$ ANZ835-935-AMZ111-154-330-350-352-354-370-450-454-472-191300- ...C-MAN AND BUOY OBSERVATIONS... STATION/POSITION TIME TEMP WIND PRES WAVE SWELL AIR SEA DIR/SP/G HT/PER HT/PER/DIR (UTC) (F) (DEG/KT/KT) (MB) (FT/S) (FT/S/D) BUOY 41004 1150 78 83 350/ 6/ 10 1014.2R 6/11 5/ 90/11 BUOY 41008 1150 78 80 270/ 6/ 8 1015.1R 4/11 3/ 70/11 FOLLY BEACH CMAN 1200 74 350/ 4/ 6 1015.9R CAPERS NEARSHORE 1108 72 79 20/ 8/ 10 1014.5R FRIPP NEARSHORE 1108 76 320/ 6/ 8 1020.2R STATION/POSITION TIME TEMP WIND PRES WAVE SWELL AIR SEA DIR/SP/G HT/PER HT/PER/DIR (UTC) (F) (DEG/KT/KT) (MB) (FT/S) (FT/S/D) 5E ST. MARYS GA 1200 80 N/A 4/12 2/ 80/12 FRYING PAN BUOY 1200 74 81 340/ 14/ 16 1013.6 BUOY 41025 1150 73 77 340/ 27/ 33 1008.0R 10/11 8/ 70/11 CAPE LOOKOUT NC 1200 71 320/ 16/ 19 1011.7R BUOY 41002 1150 80 80 310/ 14/ 16 1011.9R 10/10 10/ 30/10 BUOY 41010 1150 84 10/ 6/ 8 1014.0R 8/12 8/12 ST AUGUSTINE FL 1200 80 81 80/ 6/ 7 1015.5R $$

USA.gov is the U.S. government's official web portal to all federal, state and local government web resources and services.